Regional Weather Roundup
Issued by NWS

Home | Current Version | Previous Version | Graphics & Text | Print | Product List | Glossary Off
Versions: 1 2 3 4 5 6 7 8 9 10 11 12 13 14 15 16 17 18 19 20 21 22 23 24 25 26 27 28 29 30 31 32 33 34 35 36 37 38 39 40 41 42 43 44 45 46 47 48 49 50

000
ASUS43 KMPX 010810
RWRMN
WEATHER ROUNDUP FOR MINNESOTA
NATIONAL WEATHER SERVICE TWIN CITIES/CHANHASSEN MN
200 AM CST SUN FEB 01 2015


NOTE: "FAIR" INDICATES FEW OR NO CLOUDS BELOW 12,000 FEET WITH NO
SIGNIFICANT WEATHER AND/OR OBSTRUCTIONS TO VISIBILITY. N/A MEANS
CURRENT SKY AND/OR WEATHER CONDITIONS ARE NOT AVAILABLE.

MNZ060>063-068>070-010900-
   Twin Cities Metro

CITY           SKY/WX    TMP DP  RH WIND       PRES   REMARKS
TWIN CITIES    CLOUDY    19   7  59 NE15G24   30.19F WCI   5
ST PAUL        CLOUDY    19   8  62 NE16G28   30.22F WCI   4
CRYSTAL        CLOUDY    19   7  59 NE12      30.21S WCI   7
BLAINE         CLOUDY    19   9  63 NE15G23   30.22R WCI   5
LAKEVILLE      LGT SNOW  16  12  86 NE14      30.17S WCI   1
EDEN PRAIRIE   CLOUDY    19   8  62 NE16G23   30.17F WCI   4
SOUTH ST PAUL  CLOUDY    19   9  64 NE14G22   30.20S WCI   6
LAKE ELMO      CLOUDY    19  10  68 NE16G22   30.21F WCI   5
$$
MNZ001>005-007-008-013>017-022>024-027-028-010900-
   Northwest Minnesota

CITY           SKY/WX    TMP DP  RH WIND       PRES   REMARKS
BEMIDJI        MOCLDY    -8 -14  73 NE7       30.40R WCI -22
HALLOCK        CLEAR    -13 -20  70 N10       30.59R WCI -32
ROSEAU         MOCLDY   -15 -20  76 N7        30.54R WCI -31
WARROAD        MOCLDY   -17 -22  76 NW6       30.52S WCI -31
THIEF RVR FALL PTCLDY    -8 -15  71 N13       30.49R WCI -28
CROOKSTON      PTCLDY    -8 -15  71 N13       30.53S WCI -28
FOSSTON        PTCLDY    -8 -15  71 NE10      30.43S WCI -26
DETROIT LAKES  MOCLDY     1  -8  66 NE10      30.36S WCI -14
MOORHEAD       MOCLDY     0  -9  65 N18       30.44R WCI -22
PARK RAPIDS    PTCLDY    -1  -9  68 NE12G17   30.34R WCI -18
MAHNOMEN       FAIR      -4 -12  67 NE13G18   30.41R WCI -23
$$
MNZ006-009>011-018-025>026-010900-
   North Central Minnesota

CITY           SKY/WX    TMP DP  RH WIND       PRES   REMARKS
BAUDETTE       MOCLDY   -14 -20  74 NW6       30.49R WCI -28
FLAG ISLAND    MOCLDY   -17 -20  83 NW10      30.52R WCI -37
INTL FALLS     PTCLDY   -13 -19  75 N3        30.46S
WASKISH        MOCLDY   -13 -17  84 CALM      30.45S
BIG FORK       PTCLDY    -9 -17  70 N5        30.41S WCI -21
LONGVILLE      MOCLDY    -2 -11  65 N7        30.36S WCI -16
GRAND RAPIDS   PTCLDY    -6 -13  71 N8        30.35R WCI -21
CRANE LAKE     PTCLDY   -24 -27  83 CALM      30.48R
ORR            PTCLDY   -15 -20  76 CALM      30.39S
COOK           PTCLDY   -11 -17  77 CALM      30.41R
WALKER         FAIR      -4 -12  67 NE6       30.38R WCI -16
$$
MNZ012-019>021-037-010900-
   Northeast Minnesota

CITY           SKY/WX    TMP DP  RH WIND       PRES   REMARKS
DULUTH         MOCLDY     0 -10  63 N10       30.30S WCI -16
ELY            PTCLDY   -11 -17  77 CALM      30.39R
HIBBING        CLOUDY    -4 -15  59 N6        30.37R WCI -16
EVELETH        MOCLDY    -6 -13  71 NE8       30.37S WCI -21
DULUTH HARBOR  LGT SNOW  10   7  85 NE24G31   30.37S WCI -10
TWO HARBORS    MOCLDY     5  -6  61 NE10      30.33S WCI -10
SILVER BAY     PTCLDY     0 -11  60 N3        30.36S
GRAND MARAIS     N/A     -4 -17  53 N9G17     30.46S WCI -20
G MARAIS ARPRT MOCLDY   -13 -20  70 N10       30.31S WCI -32
$$
MNZ029>031-032-039>041-046>048-054>057-064-010900-
   West Central Minnesota

CITY           SKY/WX    TMP DP  RH WIND       PRES   REMARKS
FERGUS FALLS   MOCLDY     3  -8  60 NE17      30.36F WCI -17
WHEATON        MOCLDY     3  -2  78 N20       30.35S WCI -18
MORRIS         CLOUDY    12   1  62 N15       30.26S WCI  -4
ALEXANDRIA     CLOUDY    10  -2  58 NE14      30.25S WCI  -6
ELBOW LAKE     CLOUDY     7  -2  67 NE14      30.28F WCI -10
WADENA         MOCLDY     1  -6  71 NE9G16    30.31R WCI -14
GLENWOOD       CLOUDY    10   1  67 NE20      30.24S WCI  -8
APPLETON       CLOUDY    18   3  53 N17       30.25S WCI   2
BENSON         CLOUDY    16   1  53 E12G17    30.23F WCI   3
ORTONVILLE     CLOUDY    12   1  62 N18G24    30.27S WCI  -5
MADISON        LGT SNOW  19  12  73 N16G22    30.23F WCI   5
WILLMAR        MOCLDY    18   3  53 NE21G28   30.21F WCI   1
$$
MNZ033>034-036-042>043-049>051-058-059-010900-
   Central Minnesota

CITY           SKY/WX    TMP DP  RH WIND       PRES   REMARKS
ST CLOUD       CLOUDY    14   2  58 NE8G22    30.25S WCI   3
SAUK CENTRE    CLOUDY    11  -1  60 N17       30.25S WCI  -7
PAYNESVILLE    CLOUDY    11   1  63 N13       30.23S WCI  -4
AITKIN         MOCLDY     5  -8  56 N8        30.32S WCI  -8
PINE RIVER     PTCLDY     1  -8  66 N7        30.37S WCI -11
BRAINERD       MOCLDY     4  -6  63 NE14      30.32S WCI -14
STAPLES        PTCLDY     3  -8  60 NE8       30.31S WCI -10
LONG PRAIRIE   CLOUDY    10   0  61 N10G23    30.27S WCI  -3
LITTLE FALLS   MOCLDY    10  -2  56 N6        30.29S WCI   1
LITCHFIELD     CLOUDY    18   7  62 NE16G22   30.20F WCI   3
BUFFALO        CLOUDY    17   7  63 NE16G24   30.23R WCI   2
MAPLE LAKE     CLOUDY    18   9  66 NE14G21   30.23S WCI   4
$$
MNZ037-044-045-052-053-010900-
   East Central Minnesota

CITY           SKY/WX    TMP DP  RH WIND       PRES   REMARKS
PRINCETON      CLOUDY    16   5  62 N12       30.26R WCI   3
MORA           CLOUDY    10   0  61 NE9       30.30F WCI  -2
CAMBRIDGE      CLOUDY    18   7  62 N7G16     30.25R WCI   8
RUSH CITY      CLOUDY    15   7  71 NE15G21   30.27S WCI  -1
MOOSE LAKE     MOCLDY     5  -4  66 N8        30.31F WCI  -8
HINCKLEY       CLOUDY    10   1  67 N13G18    30.30S WCI  -5
CLOQUET        CLOUDY     1  -9  60 N8        30.31F WCI -12
MCGREGOR       MOCLDY     3  -6  66 NE9       30.34S WCI -11
$$
MNZ071>073-080-081-089-090-097-098-010900-
   Southwest Minnesota

CITY           SKY/WX    TMP DP  RH WIND       PRES   REMARKS
MONTEVIDEO     CLOUDY    16  10  79 E16G26    30.22F HAZE    WCI   0
GRANITE FALLS  LGT SNOW  18  14  84 N17G23    30.20S WCI   3
CANBY          LGT SNOW  15  12  88 N15G22    30.21F WCI   0
MARSHALL       CLOUDY    19   9  63 NE22G29   30.16S WCI   3
REDWOOD FALLS  LGT SNOW  20  12  71 NE16G26   30.16S WCI   6
OLIVIA         CLOUDY    19  10  68 NE21      30.16F WCI   3
PIPESTONE      LGT SNOW  18  16  93 NE15      30.06R WCI   3
WINDOM         LGT SNOW  21  19  93 N22       30.06S WCI   5
WORTHINGTON    CLOUDY    27  18  69 NE24      30.03S WCI  12
JACKSON        LGT SNOW  23  19  86 NE24      30.02F WCI   7
TRACY          LGT SNOW  20  16  81 NE21G28   30.12R WCI   5
SLAYTON        LGT SNOW  19  16  91 NE13G18   30.07S WCI   5
$$
MNZ065>067-074>077-082>085-091>093-010900-
   South Central Minnesota

CITY           SKY/WX    TMP DP  RH WIND       PRES   REMARKS
MANKATO        CLOUDY    19  14  79 NE23      30.11S WCI   2
NEW ULM        LGT SNOW  19  16  86 NE15G23   30.13S WCI   5
ST JAMES       LGT SNOW  23  19  86 NE16G26   30.10S WCI  10
FAIRMONT       CLOUDY    23  18  80 NE23      30.02F WCI   7
GLENCOE        CLOUDY    20  11  68 NE9G21    30.16S WCI  10
FARIBAULT      LGT SNOW  19  16  86 N12G20    30.14R WCI   7
OWATONNA       LGT SNOW  19  16  86 NE17G25   30.10S WCI   4
WASECA         LGT SNOW  21  18  86 NE18G25   30.10S WCI   6
ALBERT LEA     LGT SNOW  23  21  93 NE18      30.03F WCI   9
$$
MNZ078>079-086>088-094>096-010900-
   Southeast Minnesota

CITY           SKY/WX    TMP DP  RH WIND       PRES   REMARKS
ROCHESTER      LGT SNOW  20  17  88 NE18      30.07S VSB 1   WCI   5
RED WING       LGT SNOW  19  12  73 E8        30.18R WCI   9
STANTON        LGT SNOW  19  16  86 NE15      30.15S WCI   5
DODGE CENTER   LGT SNOW  19  18  93 NE15G23   30.07F WCI   5
WINONA         LGT SNOW  23  19  86 NE7       30.16S WCI  15
AUSTIN         LGT SNOW  23  21  93 NE18G25   30.03F WCI   9
PRESTON        LGT SNOW  23  21  93 NE15      30.05F WCI  10
$$
ABBREVIATIONS USED IN REMARKS
   TC - TEMPERATURES IN CELSIUS
  WCI - WIND CHILL INDEX
   HX - HEAT INDEX
  VSB - VISIBILITY
$$



USA.gov is the U.S. government's official web portal to all federal, state and local government web resources and services.